SCP
0 0 0 0 0 0 0 0 0 0 0 0 0 0 0 0 0 0 0 0 0 0
0 0 0 0 0 0 0 0 0 0 0 0 0 0 0 0 0 0 0 0 0 0
0 0 0 0 0 0 0 0 0 0 0 0 0 0 0 0 0 0 0 0 0 0
0 0 0 0 0 0 0 0 0 0 0 0 0 0 0 0 0 0 0 0 0 0
0 0 0 0 0 0 0 0 0 0 0 0 0 0 0 0 0 0 0 0 0 0
0 0 0 0 0 0 0 0 0 0 0 0 0 0 0 0 0 0 0 0 0 0
0 0 0 0 0 0 0 0 0 0 0 0 0 0 0 0 0 0 0 0 0 0
0 0 0 0 0 0 0 0 0 0 0 0 0 0 0 0 0 0 0 0 0 0
0 0 0 0 0 0 0 0 0 0 0 0 0 0 0 0 0 0 0 0 0 0
0 0 0 0 0 0 0 0 0 0 0 0 0 0 0 0 0 0 0 0 0 0
0 0 0 0 0 0 0 0 0 0 0 0 0 0 0 0 0 0 0 0 0 0
0 0 0 0 0 0 0 0 0 0 0 0 0 0 0 0 0 0 0 0 0 0
0 0 0 0 0 0 0 0 0 0 0 0 0 0 0 0 0 0 0 0 0 0
0 0 0 0 0 0 0 0 0 0 0 0 0 0 0 0 0 0 0 0 0 0
Wind_Speed_500mb
38 36 40 36 36 36 35 38 39 42 41 45 41 34 29 27 32 35 40 42 42 43
32 28 32 34 33 32 32 32 31 32 31 29 31 35 39 41 44 44 44 42 41 40
22 24 25 26 26 25 21 22 23 26 29 30 29 28 26 26 26 27 29 30 32 34
22 22 20 20 20 20 17 16 15 13 13 15 17 19 20 21 22 23 25 27 29 31
22 20 19 16 13 10 8 6 4 8 11 14 16 17 19 20 21 22 23 25 27 28
21 20 17 15 11 8 6 4 6 7 9 11 13 14 16 17 19 21 25 28 31 34
24 21 19 16 13 10 9 6 5 7 11 14 16 19 22 25 27 29 31 34 36 38
25 21 18 15 12 8 4 3 6 10 14 18 22 25 28 31 33 35 36 36 39 41
26 22 18 13 8 4 3 6 9 13 17 21 26 28 31 33 37 41 45 47 48 50
25 19 14 9 4 1 6 10 13 16 19 23 28 32 35 37 41 44 48 52 55 57
21 15 9 3 4 7 9 11 13 16 21 26 30 35 39 43 47 52 55 58 61 65
18 10 4 1 5 6 8 11 15 18 22 27 33 39 44 50 54 57 60 61 64 68
13 6 10 12 9 9 12 15 18 23 27 31 37 43 48 52 57 61 65 67 70 72
9 5 9 7 8 9 12 16 21 27 32 35 39 44 50 55 60 66 71 74 77 76
Wind_Direction_500mb
227 230 235 243 249 252 258 259 261 267 272 274 277 276 279 285 287 286 287 286 287 290
224 220 224 233 243 243 248 259 264 269 273 273 277 284 285 286 286 285 284 286 286 290
191 203 212 221 235 241 244 253 262 269 273 278 283 285 289 295 298 302 301 301 297 292
181 183 189 198 216 231 243 253 260 268 286 299 309 313 317 319 319 318 317 318 316 313
186 184 186 187 190 196 206 225 284 324 331 331 330 334 336 338 336 335 331 325 323 320
171 167 167 168 162 157 135 80 34 7 350 346 345 346 344 343 340 338 334 331 329 325
163 155 147 140 129 113 95 69 35 1 349 344 338 337 337 336 335 332 330 326 324 321
154 148 138 131 128 122 107 28 8 351 339 333 327 326 328 328 327 324 323 321 318 317
155 151 147 142 133 109 26 346 339 328 326 320 319 322 324 326 326 325 324 322 321 321
157 157 153 149 161 295 314 323 327 328 325 325 327 328 327 328 327 325 324 323 322 319
161 163 163 168 314 329 329 332 337 338 335 331 330 331 331 331 329 327 324 323 323 322
159 160 170 350 330 333 344 348 342 341 340 337 336 333 330 327 326 326 326 329 329 327
141 107 2 323 318 337 347 355 352 345 339 337 335 333 333 332 331 329 327 328 328 327
81 301 267 309 328 346 352 349 342 338 337 336 336 335 333 333 331 329 327 326 325 324
Wind_Speed_850mb
38 36 40 36 36 36 35 38 39 42 41 45 41 34 29 27 32 35 40 42 42 43
32 28 32 34 33 32 32 32 31 32 31 29 31 35 39 41 44 44 44 42 41 40
22 24 25 26 26 25 21 22 23 26 29 30 29 28 26 26 26 27 29 30 32 34
22 22 20 20 20 20 17 16 15 13 13 15 17 19 20 21 22 23 25 27 29 31
22 20 19 16 13 10 8 6 4 8 11 14 16 17 19 20 21 22 23 25 27 28
21 20 17 15 11 8 6 4 6 7 9 11 13 14 16 17 19 21 25 28 31 34
24 21 19 16 13 10 9 6 5 7 11 14 16 19 22 25 27 29 31 34 36 38
25 21 18 15 12 8 4 3 6 10 14 18 22 25 28 31 33 35 36 36 39 41
26 22 18 13 8 4 3 6 9 13 17 21 26 28 31 33 37 41 45 47 48 50
25 19 14 9 4 1 6 10 13 16 19 23 28 32 35 37 41 44 48 52 55 57
21 15 9 3 4 7 9 11 13 16 21 26 30 35 39 43 47 52 55 58 61 65
18 10 4 1 5 6 8 11 15 18 22 27 33 39 44 50 54 57 60 61 64 68
13 6 10 12 9 9 12 15 18 23 27 31 37 43 48 52 57 61 65 67 70 72
9 5 9 7 8 9 12 16 21 27 32 35 39 44 50 55 60 66 71 74 77 76
Wind_Direction_850mb
227 230 235 243 249 252 258 259 261 267 272 274 277 276 279 285 287 286 287 286 287 290
224 220 224 233 243 243 248 259 264 269 273 273 277 284 285 286 286 285 284 286 286 290
191 203 212 221 235 241 244 253 262 269 273 278 283 285 289 295 298 302 301 301 297 292
181 183 189 198 216 231 243 253 260 268 286 299 309 313 317 319 319 318 317 318 316 313
186 184 186 187 190 196 206 225 284 324 331 331 330 334 336 338 336 335 331 325 323 320
171 167 167 168 162 157 135 80 34 7 350 346 345 346 344 343 340 338 334 331 329 325
163 155 147 140 129 113 95 69 35 1 349 344 338 337 337 336 335 332 330 326 324 321
154 148 138 131 128 122 107 28 8 351 339 333 327 326 328 328 327 324 323 321 318 317
155 151 147 142 133 109 26 346 339 328 326 320 319 322 324 326 326 325 324 322 321 321
157 157 153 149 161 295 314 323 327 328 325 325 327 328 327 328 327 325 324 323 322 319
161 163 163 168 314 329 329 332 337 338 335 331 330 331 331 331 329 327 324 323 323 322
159 160 170 350 330 333 344 348 342 341 340 337 336 333 330 327 326 326 326 329 329 327
141 107 2 323 318 337 347 355 352 345 339 337 335 333 333 332 331 329 327 328 328 327
81 301 267 309 328 346 352 349 342 338 337 336 336 335 333 333 331 329 327 326 325 324